Flag for U.S.A. Weather past 2 weeks in Orlando, Florida, U.S.A.

Now
78 °F

Passing clouds.


Feels Like: 81 °F
Forecast: 74 / 88 °F
Wind: 3 mph from West

Location: Orlando Executive Airport

Current Time: Jul 30, 2015 at 7:15:58 PM

Latest Report: Jul 30, 2015 at 6:53 PM


Visibility: 10 mi

Pressure: 29.97 "Hg

Humidity: 93%

Dew point: 76 °F

Location of OrlandoLocation

Historic Weather in Orlando — Graph

°F

Orlando temperature yesterday

Maximum temperature yesterday: 91 °F (at 3:53 PM)
Minimum temperature yesterday: 75 °F (at 6:53 AM)
Average temperature yesterday: 80 °F

Past Weeks' High & Low Weather Summary

 TemperatureHumidityPressure
High94 °F (Jul 23, 3:53 PM)100% (Jul 17, 5:53 PM)30.07 "Hg (Jul 17, 5:53 PM)
Low75 °F (Jul 29, 6:53 AM)54% (Jul 23, 3:53 PM)29.84 "Hg (Jul 25, 5:00 PM)
Average81 °F85%29.97 "Hg
* Reported Jul 15 4:53 PM — Jul 30 4:53 PM, Orlando, Weather by CustomWeather, © 2015

Note: Actual official high and low records may vary slightly from our data, if they occured in-between our weather recording intervals... More about our weather records

Advertising

Orlando weather history for previous 24 hours

 ConditionsComfort  
Time TempWeatherWind HumidityBarometerVisibility
4:53 PM
Thu, Jul 30
77 °FThunderstorms. Fog.5 mph94%29.95 "Hg6 mi
3:53 PM90 °FThundershowers. Mostly cloudy.20 mph63%29.93 "Hg10 mi
2:53 PM92 °FSunny.9 mph60%29.95 "HgN/A
1:53 PM91 °FPassing clouds.6 mph61%29.98 "HgN/A
12:53 PM88 °FScattered clouds.5 mph67%30.00 "HgN/A
11:53 AM88 °FScattered clouds.8 mph70%30.02 "Hg10 mi
10:53 AM86 °FPassing clouds.10 mph75%30.01 "Hg10 mi
9:53 AM84 °FSunny.8 mph77%30.01 "Hg10 mi
8:53 AM81 °FSunny.6 mph88%30.00 "Hg10 mi
7:53 AM77 °FSunny.3 mph100%29.99 "Hg10 mi
6:53 AM76 °FClear.3 mph100%29.97 "Hg9 mi
5:53 AM77 °FClear.5 mph96%29.97 "Hg10 mi
4:53 AM76 °FClear.3 mph100%29.96 "Hg10 mi
3:53 AM76 °FPassing clouds.3 mph97%29.97 "Hg10 mi
2:53 AM76 °FClear.6 mph97%29.97 "Hg10 mi
1:53 AM77 °FClear.3 mph94%29.99 "Hg10 mi
12:53 AM76 °FClear.5 mph97%29.99 "Hg10 mi
11:53 PM
Wed, Jul 29
76 °FClear.5 mph97%29.99 "Hg10 mi
10:53 PM77 °FClear.No wind94%29.98 "Hg10 mi
9:53 PM78 °FClear.9 mph93%29.97 "Hg10 mi
8:53 PM79 °FPassing clouds.12 mph90%29.97 "Hg10 mi
7:53 PM80 °FSunny.12 mph85%29.97 "Hg10 mi
Weather by CustomWeather, © 2015

See weather overviewHow to use our weather pages